| time (UTC) | temp F | wind direction | speed MPH | gust MPH | rain 1hr in | rain 24hr in | rain mn in | humidity % | barometer mb |
| 20260505085252 | 58 | 315 | 1.0 | 3.0 | 0.00 | 0.00 | 0.00 | 84 | 1003.1 |
| 20260505083751 | 59 | 217 | 0.0 | 0.0 | 0.00 | 0.00 | 0.00 | 83 | 1002.9 |
| 20260505082247 | 61 | 103 | 1.0 | 4.0 | 0.00 | 0.00 | 0.00 | 76 | 1003.0 |
| 20260505080743 | 62 | 249 | 2.0 | 9.0 | 0.00 | 0.00 | 0.00 | 71 | 1002.9 |
| 20260505075243 | 63 | 98 | 0.0 | 2.0 | 0.00 | 0.00 | 0.00 | 69 | 1002.9 |
| 20260505073741 | 63 | 276 | 1.0 | 3.0 | 0.00 | 0.00 | 0.00 | 70 | 1002.9 |
| 20260505072237 | 62 | 331 | 0.0 | 1.0 | 0.00 | 0.00 | 0.00 | 72 | 1002.9 |
| 20260505070734 | 63 | 286 | 0.0 | 0.0 | 0.00 | 0.00 | 0.00 | 70 | 1002.6 |
| 20260505065228 | 64 | 307 | 1.0 | 2.0 | 0.00 | 0.00 | 0.00 | 69 | 1003.0 |
| 20260505063726 | 65 | 314 | 0.0 | 1.0 | 0.00 | 0.00 | 0.00 | 66 | 1002.7 |
| 20260505062222 | 66 | 242 | 1.0 | 2.0 | 0.00 | 0.00 | 0.00 | 63 | 1002.6 |
| 20260505060720 | 67 | 305 | 0.0 | 1.0 | 0.00 | 0.00 | 0.00 | 62 | 1002.4 |
| 20260505055220 | 67 | 23 | 0.0 | 1.0 | 0.00 | 0.00 | 0.00 | 62 | 1002.1 |
| 20260505053720 | 66 | 279 | 1.0 | 1.0 | 0.00 | 0.00 | 0.00 | 62 | 1002.0 |
| 20260505052216 | 67 | 266 | 1.0 | 2.0 | 0.00 | 0.00 | 0.00 | 62 | 1001.9 |
| 20260505050715 | 67 | 209 | 0.0 | 2.0 | 0.00 | 0.00 | 0.00 | 61 | 1001.9 |
| 20260505040700 | 67 | 179 | 1.0 | 2.0 | 0.00 | 0.00 | 0.00 | 60 | 1002.1 |
| 20260505035156 | 67 | 6 | 0.0 | 1.0 | 0.00 | 0.00 | 0.00 | 62 | 1002.3 |
| 20260505033652 | 67 | 100 | 1.0 | 4.0 | 0.00 | 0.00 | 0.00 | 61 | 1002.5 |
| 20260505032149 | 67 | 53 | 0.0 | 1.0 | 0.00 | 0.00 | 0.00 | 62 | 1002.6 |
| 20260505030646 | 67 | 285 | 1.0 | 2.0 | 0.00 | 0.00 | 0.00 | 61 | 1002.8 |
| 20260505025142 | 67 | 254 | 0.0 | 1.0 | 0.00 | 0.00 | 0.00 | 61 | 1002.6 |
| 20260505023639 | 66 | 305 | 0.0 | 0.0 | 0.00 | 0.00 | 0.00 | 63 | 1002.5 |
| 20260505022137 | 66 | 134 | 0.0 | 1.0 | 0.00 | 0.00 | 0.00 | 63 | 1002.6 |
| 20260505020631 | 67 | 320 | 1.0 | 1.0 | 0.00 | 0.00 | 0.00 | 63 | 1002.3 |
| 20260505015127 | 68 | 131 | 2.0 | 4.0 | 0.00 | 0.00 | 0.00 | 60 | 1002.5 |
| 20260505013625 | 68 | 31 | 0.0 | 1.0 | 0.00 | 0.00 | 0.00 | 59 | 1002.6 |
| 20260505012122 | 69 | 307 | 0.0 | 1.0 | 0.00 | 0.00 | 0.00 | 57 | 1002.1 |
| 20260505010622 | 69 | 302 | 0.0 | 3.0 | 0.00 | 0.00 | 0.00 | 56 | 1002.3 |
| 20260505005118 | 69 | 302 | 0.0 | 3.0 | 0.00 | 0.00 | 0.00 | 55 | 1002.1 |
| 20260505003615 | 70 | 101 | 0.0 | 3.0 | 0.00 | 0.00 | 0.00 | 53 | 1001.9 |
| 20260505002112 | 70 | 322 | 1.0 | 2.0 | 0.00 | 0.00 | 0.00 | 51 | 1002.1 |
| 20260505000609 | 72 | 150 | 2.0 | 3.0 | 0.00 | 0.00 | 0.00 | 49 | 1002.0 |
| 20260504235106 | 73 | 318 | 1.0 | 4.0 | 0.00 | 0.00 | 0.00 | 46 | 1002.2 |
| 20260504233601 | 73 | 310 | 2.0 | 2.0 | 0.00 | 0.00 | 0.00 | 47 | 1002.0 |
| 20260504232058 | 74 | 77 | 1.0 | 2.0 | 0.00 | 0.00 | 0.00 | 46 | 1001.8 |
| 20260504230558 | 74 | 271 | 2.0 | 4.0 | 0.00 | 0.00 | 0.00 | 47 | 1001.7 |
| 20260504225057 | 74 | 21 | 1.0 | 7.0 | 0.00 | 0.00 | 0.00 | 47 | 1001.8 |
| 20260504223554 | 75 | 106 | 1.0 | 3.0 | 0.00 | 0.00 | 0.00 | 47 | 1001.8 |
| 20260504222050 | 75 | 317 | 1.0 | 7.0 | 0.00 | 0.00 | 0.00 | 47 | 1002.0 |
| 20260504220546 | 77 | 90 | 1.0 | 1.0 | 0.00 | 0.00 | 0.00 | 46 | 1001.9 |
| 20260504215043 | 77 | 293 | 2.0 | 6.0 | 0.00 | 0.00 | 0.00 | 46 | 1001.9 |
| 20260504213544 | 76 | 116 | 1.0 | 2.0 | 0.00 | 0.00 | 0.00 | 48 | 1001.6 |
| 20260504212040 | 77 | 291 | 2.0 | 3.0 | 0.00 | 0.00 | 0.00 | 48 | 1001.8 |
| 20260504210537 | 76 | 233 | 1.0 | 2.0 | 0.00 | 0.00 | 0.00 | 50 | 1002.1 |
| 20260504205035 | 74 | 198 | 1.0 | 4.0 | 0.00 | 0.00 | 0.00 | 50 | 1002.5 |
| 20260504203534 | 76 | 233 | 1.0 | 9.0 | 0.00 | 0.00 | 0.00 | 49 | 1002.3 |
| 20260504202030 | 75 | 334 | 1.0 | 10.0 | 0.00 | 0.00 | 0.00 | 51 | 1002.4 |
| 20260504200527 | 77 | 298 | 2.0 | 7.0 | 0.00 | 0.00 | 0.00 | 50 | 1002.4 |
| 20260504195023 | 78 | 143 | 2.0 | 7.0 | 0.00 | 0.00 | 0.00 | 48 | 1002.5 |
| 20260504193517 | 76 | 105 | 2.0 | 6.0 | 0.00 | 0.00 | 0.00 | 48 | 1002.8 |
| 20260504192012 | 76 | 320 | 1.0 | 2.0 | 0.00 | 0.00 | 0.00 | 52 | 1002.8 |
| 20260504190507 | 77 | 2 | 1.0 | 4.0 | 0.00 | 0.00 | 0.00 | 50 | 1003.3 |
| 20260504185003 | 76 | 103 | 1.0 | 2.0 | 0.00 | 0.00 | 0.00 | 53 | 1003.6 |
| 20260504183503 | 73 | 312 | 1.0 | 4.0 | 0.00 | 0.00 | 0.00 | 53 | 1003.9 |
| 20260504182000 | 74 | 324 | 1.0 | 4.0 | 0.00 | 0.00 | 0.00 | 54 | 1004.1 |
| 20260504180500 | 74 | 114 | 2.0 | 4.0 | 0.00 | 0.00 | 0.00 | 52 | 1004.2 |
| 20260504174958 | 73 | 71 | 1.0 | 2.0 | 0.00 | 0.00 | 0.00 | 55 | 1004.3 |
| 20260504173455 | 72 | 102 | 0.0 | 2.0 | 0.00 | 0.00 | 0.00 | 54 | 1004.6 |
| 20260504171951 | 71 | 297 | 2.0 | 2.0 | 0.00 | 0.00 | 0.00 | 55 | 1004.4 |
| 20260504170447 | 70 | 112 | 1.0 | 2.0 | 0.00 | 0.00 | 0.00 | 55 | 1004.9 |
| 20260504160436 | 67 | 280 | 1.0 | 4.0 | 0.00 | 0.00 | 0.00 | 58 | 1005.5 |
| 20260504150426 | 65 | 75 | 2.0 | 3.0 | 0.00 | 0.00 | 0.00 | 59 | 1005.8 |
| 20260504140411 | 61 | 23 | 0.0 | 1.0 | 0.00 | 0.00 | 0.00 | 62 | 1005.9 |
| 20260504130400 | 58 | 312 | 0.0 | 1.0 | 0.00 | 0.00 | 0.00 | 65 | 1006.5 |
| 20260504110340 | 50 | 348 | 0.0 | 2.0 | 0.00 | 0.00 | 0.00 | 73 | 1006.6 |
| 20260504100326 | 51 | 46 | 0.0 | 4.0 | 0.00 | 0.00 | 0.00 | 70 | 1006.8 |